Time,TemperatureF,DewpointF,PressureIn,WindDirection,WindDirectionDegrees,WindSpeedMPH,WindSpeedGustMPH,Humidity,HourlyPrecipIn,Conditions,Clouds,dailyrainin,SoftwareType,DateUTC
2013-01-10 00:00:00,57.8,51.3,30.40,North,0,0.0,0.0,79,0.00,,,0.00,WUHU216HW,2013-01-10 05:00:00,
2013-01-10 00:01:00,57.8,51.3,30.40,North,0,0.0,0.0,79,0.00,,,0.00,WUHU216HW,2013-01-10 05:01:00,
2013-01-10 00:02:00,57.8,51.3,30.40,North,0,0.0,0.0,79,0.00,,,0.00,WUHU216HW,2013-01-10 05:02:00,
2013-01-10 00:07:00,57.8,51.3,30.40,North,0,0.0,0.0,79,0.00,,,0.00,WUHU216HW,2013-01-10 05:07:00,
2013-01-10 00:12:00,57.8,51.3,30.41,North,0,0.0,0.0,79,0.00,,,0.00,WUHU216HW,2013-01-10 05:12:00,
2013-01-10 00:17:00,58.0,51.5,30.41,North,0,0.0,0.0,79,0.00,,,0.00,WUHU216HW,2013-01-10 05:17:00,
2013-01-10 00:22:00,58.0,51.5,30.41,North,0,0.0,0.0,79,0.00,,,0.00,WUHU216HW,2013-01-10 05:22:00,
2013-01-10 00:27:00,58.0,51.5,30.41,North,0,0.0,0.0,79,0.00,,,0.00,WUHU216HW,2013-01-10 05:27:00,
2013-01-10 00:32:00,58.0,51.8,30.41,North,0,0.0,0.0,80,0.00,,,0.00,WUHU216HW,2013-01-10 05:32:00,
2013-01-10 00:37:00,58.0,51.8,30.41,North,0,0.0,0.0,80,0.00,,,0.00,WUHU216HW,2013-01-10 05:37:00,
2013-01-10 00:42:00,58.0,51.8,30.40,North,0,0.0,0.0,80,0.00,,,0.00,WUHU216HW,2013-01-10 05:42:00,
2013-01-10 00:47:00,58.0,51.8,30.40,North,0,0.0,0.0,80,0.00,,,0.00,WUHU216HW,2013-01-10 05:47:00,
2013-01-10 00:52:00,58.0,51.8,30.41,North,0,0.0,0.0,80,0.00,,,0.00,WUHU216HW,2013-01-10 05:52:00,
2013-01-10 00:57:00,57.8,51.7,30.41,North,0,0.0,0.0,80,0.00,,,0.00,WUHU216HW,2013-01-10 05:57:00,
2013-01-10 01:02:00,58.0,51.8,30.41,North,0,0.0,0.0,80,0.00,,,0.00,WUHU216HW,2013-01-10 06:02:00,
2013-01-10 01:07:00,57.8,51.7,30.41,North,0,0.0,0.0,80,0.00,,,0.00,WUHU216HW,2013-01-10 06:07:00,
2013-01-10 01:13:00,57.6,51.5,30.41,North,0,0.0,0.0,80,0.00,,,0.00,WUHU216HW,2013-01-10 06:13:00,
2013-01-10 01:18:00,57.4,51.3,30.42,North,0,0.0,0.0,80,0.00,,,0.00,WUHU216HW,2013-01-10 06:18:00,
2013-01-10 01:23:00,57.2,51.1,30.42,North,0,0.0,0.0,80,0.00,,,0.00,WUHU216HW,2013-01-10 06:23:00,
2013-01-10 01:28:00,57.1,50.9,30.41,North,0,0.0,0.0,80,0.00,,,0.00,WUHU216HW,2013-01-10 06:28:00,
2013-01-10 01:33:00,56.9,50.8,30.41,North,0,0.0,0.0,80,0.00,,,0.00,WUHU216HW,2013-01-10 06:33:00,
2013-01-10 01:38:00,56.7,50.6,30.41,North,0,0.0,0.0,80,0.00,,,0.00,WUHU216HW,2013-01-10 06:38:00,
2013-01-10 01:43:00,56.5,50.4,30.42,North,0,0.0,0.0,80,0.00,,,0.00,WUHU216HW,2013-01-10 06:43:00,
2013-01-10 01:48:00,56.5,50.4,30.42,North,0,0.0,0.0,80,0.00,,,0.00,WUHU216HW,2013-01-10 06:48:00,
2013-01-10 01:53:00,56.5,50.4,30.42,North,0,0.0,0.0,80,0.00,,,0.00,WUHU216HW,2013-01-10 06:53:00,
2013-01-10 01:58:00,56.5,50.4,30.42,North,0,0.0,0.0,80,0.00,,,0.00,WUHU216HW,2013-01-10 06:58:00,
2013-01-10 02:03:00,56.5,50.4,30.42,North,0,0.0,0.0,80,0.00,,,0.00,WUHU216HW,2013-01-10 07:03:00,
2013-01-10 02:08:00,56.5,50.4,30.42,North,0,0.0,0.0,80,0.00,,,0.00,WUHU216HW,2013-01-10 07:08:00,
2013-01-10 02:13:00,56.5,50.4,30.42,North,0,0.0,0.0,80,0.00,,,0.00,WUHU216HW,2013-01-10 07:13:00,
2013-01-10 02:18:00,56.5,50.4,30.42,North,0,0.0,0.0,80,0.00,,,0.00,WUHU216HW,2013-01-10 07:18:00,
2013-01-10 02:23:00,56.5,50.4,30.42,North,0,0.0,0.0,80,0.00,,,0.00,WUHU216HW,2013-01-10 07:23:00,
2013-01-10 02:29:00,56.7,50.6,30.42,North,0,0.0,0.0,80,0.00,,,0.00,WUHU216HW,2013-01-10 07:29:00,
2013-01-10 02:34:00,56.7,50.6,30.42,North,0,0.0,0.0,80,0.00,,,0.00,WUHU216HW,2013-01-10 07:34:00,
2013-01-10 02:39:00,56.7,50.6,30.42,North,0,0.0,0.0,80,0.00,,,0.00,WUHU216HW,2013-01-10 07:39:00,
2013-01-10 02:44:00,56.5,50.4,30.42,North,0,0.0,0.0,80,0.00,,,0.00,WUHU216HW,2013-01-10 07:44:00,
2013-01-10 02:49:00,56.5,50.4,30.42,North,0,0.0,0.0,80,0.00,,,0.00,WUHU216HW,2013-01-10 07:49:00,
2013-01-10 02:54:00,56.7,50.6,30.42,North,0,0.0,0.0,80,0.00,,,0.00,WUHU216HW,2013-01-10 07:54:00,
2013-01-10 02:59:00,56.7,50.6,30.42,North,0,0.0,0.0,80,0.00,,,0.00,WUHU216HW,2013-01-10 07:59:00,
2013-01-10 03:04:00,56.7,50.6,30.42,North,0,0.0,0.0,80,0.00,,,0.00,WUHU216HW,2013-01-10 08:04:00,
2013-01-10 03:09:00,56.7,50.6,30.42,North,0,0.0,0.0,80,0.00,,,0.00,WUHU216HW,2013-01-10 08:09:00,
2013-01-10 03:14:00,56.5,50.4,30.42,North,0,0.0,0.0,80,0.00,,,0.00,WUHU216HW,2013-01-10 08:14:00,
2013-01-10 03:20:00,56.5,50.4,30.42,North,0,0.0,0.0,80,0.00,,,0.00,WUHU216HW,2013-01-10 08:20:00,
2013-01-10 03:25:00,56.5,50.4,30.42,North,0,0.0,0.0,80,0.00,,,0.00,WUHU216HW,2013-01-10 08:25:00,
2013-01-10 03:30:00,56.5,50.4,30.42,North,0,0.0,0.0,80,0.00,,,0.00,WUHU216HW,2013-01-10 08:30:00,
2013-01-10 03:35:00,56.3,50.2,30.42,North,0,0.0,0.0,80,0.00,,,0.00,WUHU216HW,2013-01-10 08:35:00,
2013-01-10 03:40:00,56.2,50.0,30.42,North,0,0.0,0.0,80,0.00,,,0.00,WUHU216HW,2013-01-10 08:40:00,
2013-01-10 03:45:00,56.2,50.0,30.42,North,0,0.0,0.0,80,0.00,,,0.00,WUHU216HW,2013-01-10 08:45:00,
2013-01-10 03:50:00,56.0,49.9,30.42,North,0,0.0,0.0,80,0.00,,,0.00,WUHU216HW,2013-01-10 08:50:00,
2013-01-10 03:55:00,56.0,49.9,30.42,North,0,0.0,0.0,80,0.00,,,0.00,WUHU216HW,2013-01-10 08:55:00,
2013-01-10 04:00:00,56.0,50.2,30.42,North,0,0.0,0.0,81,0.00,,,0.00,WUHU216HW,2013-01-10 09:00:00,
2013-01-10 04:05:00,56.0,49.9,30.42,North,0,0.0,0.0,80,0.00,,,0.00,WUHU216HW,2013-01-10 09:05:00,
2013-01-10 04:10:00,55.8,50.1,30.41,North,0,0.0,0.0,81,0.00,,,0.00,WUHU216HW,2013-01-10 09:10:00,
2013-01-10 04:15:00,55.8,49.7,30.41,North,0,0.0,0.0,80,0.00,,,0.00,WUHU216HW,2013-01-10 09:15:00,
2013-01-10 04:20:00,55.6,49.9,30.41,North,0,0.0,0.0,81,0.00,,,0.00,WUHU216HW,2013-01-10 09:20:00,
2013-01-10 04:25:00,55.4,49.3,30.41,North,0,0.0,0.0,80,0.00,,,0.00,WUHU216HW,2013-01-10 09:25:00,
2013-01-10 04:30:00,55.4,49.3,30.41,North,0,0.0,0.0,80,0.00,,,0.00,WUHU216HW,2013-01-10 09:30:00,
2013-01-10 04:35:00,55.6,49.9,30.41,North,0,0.0,0.0,81,0.00,,,0.00,WUHU216HW,2013-01-10 09:35:00,
2013-01-10 04:40:00,55.6,49.9,30.41,North,0,0.0,0.0,81,0.00,,,0.00,WUHU216HW,2013-01-10 09:40:00,
2013-01-10 04:45:00,55.8,50.1,30.41,North,0,0.0,0.0,81,0.00,,,0.00,WUHU216HW,2013-01-10 09:45:00,
2013-01-10 04:50:00,56.0,50.2,30.41,North,0,0.0,0.0,81,0.00,,,0.00,WUHU216HW,2013-01-10 09:50:00,
2013-01-10 04:56:00,56.2,50.4,30.41,North,0,0.0,0.0,81,0.00,,,0.00,WUHU216HW,2013-01-10 09:56:00,
2013-01-10 05:01:00,56.2,50.4,30.41,North,0,0.0,0.0,81,0.00,,,0.00,WUHU216HW,2013-01-10 10:01:00,
2013-01-10 05:05:00,56.3,50.6,30.41,North,0,0.0,0.0,81,0.00,,,0.00,WUHU216HW,2013-01-10 10:05:00,
2013-01-10 05:11:00,56.3,50.6,30.41,North,0,0.0,0.0,81,0.00,,,0.00,WUHU216HW,2013-01-10 10:11:00,
2013-01-10 05:16:00,56.5,50.8,30.41,North,0,0.0,0.0,81,0.00,,,0.00,WUHU216HW,2013-01-10 10:16:00,
2013-01-10 05:21:00,56.9,51.1,30.41,North,0,0.0,0.0,81,0.00,,,0.00,WUHU216HW,2013-01-10 10:21:00,
2013-01-10 05:26:00,56.9,51.1,30.41,North,0,0.0,0.0,81,0.00,,,0.00,WUHU216HW,2013-01-10 10:26:00,
2013-01-10 05:31:00,56.9,51.1,30.41,North,0,0.0,0.0,81,0.00,,,0.00,WUHU216HW,2013-01-10 10:31:00,
2013-01-10 05:36:00,56.9,51.1,30.41,North,0,0.0,0.0,81,0.00,,,0.00,WUHU216HW,2013-01-10 10:36:00,
2013-01-10 05:41:00,56.9,51.1,30.42,North,0,0.0,0.0,81,0.00,,,0.00,WUHU216HW,2013-01-10 10:41:00,
2013-01-10 05:46:00,57.1,51.3,30.42,North,0,0.0,0.0,81,0.00,,,0.00,WUHU216HW,2013-01-10 10:46:00,
2013-01-10 05:51:00,57.2,51.5,30.42,North,0,0.0,0.0,81,0.00,,,0.00,WUHU216HW,2013-01-10 10:51:00,
2013-01-10 05:56:00,57.4,51.7,30.42,North,0,0.0,0.0,81,0.00,,,0.00,WUHU216HW,2013-01-10 10:56:00,
2013-01-10 06:01:00,57.4,51.7,30.43,North,0,0.0,0.0,81,0.00,,,0.00,WUHU216HW,2013-01-10 11:01:00,
2013-01-10 06:06:00,57.4,51.7,30.42,North,0,0.0,0.0,81,0.00,,,0.00,WUHU216HW,2013-01-10 11:06:00,
2013-01-10 06:11:00,57.6,51.9,30.43,North,0,0.0,0.0,81,0.00,,,0.00,WUHU216HW,2013-01-10 11:11:00,
2013-01-10 06:16:00,57.1,51.3,30.42,North,0,0.0,0.0,81,0.00,,,0.00,WUHU216HW,2013-01-10 11:16:00,
2013-01-10 06:22:00,57.1,51.3,30.43,North,0,0.0,0.0,81,0.00,,,0.00,WUHU216HW,2013-01-10 11:22:00,
2013-01-10 06:27:00,57.1,51.3,30.43,North,0,0.0,0.0,81,0.00,,,0.00,WUHU216HW,2013-01-10 11:27:00,
2013-01-10 06:32:00,56.9,51.1,30.43,North,0,0.0,0.0,81,0.00,,,0.00,WUHU216HW,2013-01-10 11:32:00,
2013-01-10 06:37:00,57.1,51.3,30.43,North,0,0.0,0.0,81,0.00,,,0.00,WUHU216HW,2013-01-10 11:37:00,
2013-01-10 06:42:00,57.2,51.5,30.43,North,0,0.0,0.0,81,0.00,,,0.00,WUHU216HW,2013-01-10 11:42:00,
2013-01-10 06:47:00,57.2,51.5,30.43,North,0,0.0,0.0,81,0.00,,,0.00,WUHU216HW,2013-01-10 11:47:00,
2013-01-10 06:52:00,57.2,51.5,30.44,North,0,0.0,0.0,81,0.00,,,0.00,WUHU216HW,2013-01-10 11:52:00,
2013-01-10 06:57:00,56.7,51.0,30.44,North,0,0.0,0.0,81,0.00,,,0.00,WUHU216HW,2013-01-10 11:57:00,
2013-01-10 07:02:00,55.8,50.1,30.44,North,0,0.0,0.0,81,0.00,,,0.00,WUHU216HW,2013-01-10 12:02:00,
2013-01-10 07:07:00,55.4,49.3,30.44,North,0,0.0,0.0,80,0.00,,,0.00,WUHU216HW,2013-01-10 12:07:00,
2013-01-10 07:12:00,55.6,49.9,30.44,North,0,0.0,0.0,81,0.00,,,0.00,WUHU216HW,2013-01-10 12:12:00,
2013-01-10 07:17:00,55.8,50.1,30.45,North,0,0.0,0.0,81,0.00,,,0.00,WUHU216HW,2013-01-10 12:17:00,
2013-01-10 07:23:00,55.8,50.1,30.45,North,0,0.0,0.0,81,0.00,,,0.00,WUHU216HW,2013-01-10 12:23:00,
2013-01-10 07:28:00,56.0,50.2,30.45,North,0,0.0,0.0,81,0.00,,,0.00,WUHU216HW,2013-01-10 12:28:00,
2013-01-10 07:33:00,56.2,50.4,30.45,North,0,0.0,0.0,81,0.00,,,0.00,WUHU216HW,2013-01-10 12:33:00,
2013-01-10 07:38:00,56.3,50.6,30.45,North,0,0.0,0.0,81,0.00,,,0.00,WUHU216HW,2013-01-10 12:38:00,
2013-01-10 07:43:00,56.5,50.8,30.46,North,0,0.0,0.0,81,0.00,,,0.00,WUHU216HW,2013-01-10 12:43:00,
2013-01-10 07:48:00,56.7,51.0,30.46,North,0,0.0,0.0,81,0.00,,,0.00,WUHU216HW,2013-01-10 12:48:00,
2013-01-10 07:53:00,57.1,51.3,30.47,North,0,0.0,0.0,81,0.00,,,0.00,WUHU216HW,2013-01-10 12:53:00,
2013-01-10 07:58:00,57.4,51.7,30.47,North,0,0.0,0.0,81,0.00,,,0.00,WUHU216HW,2013-01-10 12:58:00,
2013-01-10 08:03:00,57.8,52.0,30.47,North,0,0.0,0.0,81,0.00,,,0.00,WUHU216HW,2013-01-10 13:03:00,
2013-01-10 08:08:00,58.0,51.8,30.48,North,0,0.0,0.0,80,0.00,,,0.00,WUHU216HW,2013-01-10 13:08:00,
2013-01-10 08:13:00,58.3,51.8,30.48,North,0,0.0,0.0,79,0.00,,,0.00,WUHU216HW,2013-01-10 13:13:00,
2013-01-10 08:18:00,58.5,51.7,30.48,North,0,0.0,0.0,78,0.00,,,0.00,WUHU216HW,2013-01-10 13:18:00,
2013-01-10 08:23:00,58.7,51.5,30.48,North,0,0.0,0.0,77,0.00,,,0.00,WUHU216HW,2013-01-10 13:23:00,
2013-01-10 08:28:00,58.7,51.1,30.49,North,0,0.0,0.0,76,0.00,,,0.00,WUHU216HW,2013-01-10 13:28:00,
2013-01-10 08:33:00,58.7,51.1,30.49,North,0,0.0,0.0,76,0.00,,,0.00,WUHU216HW,2013-01-10 13:33:00,
2013-01-10 08:38:00,58.3,50.8,30.49,North,0,0.0,0.0,76,0.00,,,0.00,WUHU216HW,2013-01-10 13:38:00,
2013-01-10 08:44:00,58.1,50.6,30.49,North,0,0.0,0.0,76,0.00,,,0.00,WUHU216HW,2013-01-10 13:44:00,
2013-01-10 08:49:00,58.0,50.4,30.49,North,0,0.0,0.0,76,0.00,,,0.00,WUHU216HW,2013-01-10 13:49:00,
2013-01-10 08:54:00,58.0,50.4,30.49,North,0,0.0,0.0,76,0.00,,,0.00,WUHU216HW,2013-01-10 13:54:00,
2013-01-10 08:59:00,58.1,50.6,30.49,North,0,0.0,0.0,76,0.00,,,0.00,WUHU216HW,2013-01-10 13:59:00,
2013-01-10 09:04:00,58.3,50.4,30.49,North,0,0.0,0.0,75,0.00,,,0.00,WUHU216HW,2013-01-10 14:04:00,
2013-01-10 09:09:00,58.3,50.8,30.49,North,0,0.0,0.0,76,0.00,,,0.00,WUHU216HW,2013-01-10 14:09:00,
2013-01-10 09:14:00,58.5,50.2,30.49,North,0,0.0,0.0,74,0.00,,,0.00,WUHU216HW,2013-01-10 14:14:00,
2013-01-10 09:19:00,58.7,50.4,30.49,North,0,0.0,0.0,74,0.00,,,0.00,WUHU216HW,2013-01-10 14:19:00,
2013-01-10 09:24:00,58.7,50.4,30.49,North,0,0.0,0.0,74,0.00,,,0.00,WUHU216HW,2013-01-10 14:24:00,
2013-01-10 09:29:00,58.9,50.6,30.50,North,0,0.0,0.0,74,0.00,,,0.00,WUHU216HW,2013-01-10 14:29:00,
2013-01-10 09:34:00,58.9,50.6,30.50,North,0,0.0,0.0,74,0.00,,,0.00,WUHU216HW,2013-01-10 14:34:00,
2013-01-10 09:39:00,58.9,50.6,30.50,North,0,0.0,0.0,74,0.00,,,0.00,WUHU216HW,2013-01-10 14:39:00,
2013-01-10 09:44:00,58.7,50.4,30.50,North,0,0.0,0.0,74,0.00,,,0.00,WUHU216HW,2013-01-10 14:44:00,
2013-01-10 09:49:00,58.5,50.2,30.50,North,0,0.0,0.0,74,0.00,,,0.00,WUHU216HW,2013-01-10 14:49:00,
2013-01-10 09:54:00,58.7,50.4,30.49,North,0,0.0,0.0,74,0.00,,,0.00,WUHU216HW,2013-01-10 14:54:00,
2013-01-10 09:59:00,59.0,50.8,30.50,North,0,0.0,0.0,74,0.00,,,0.00,WUHU216HW,2013-01-10 14:59:00,
2013-01-10 10:04:00,59.2,50.9,30.49,North,0,0.0,0.0,74,0.00,,,0.00,WUHU216HW,2013-01-10 15:04:00,
2013-01-10 10:10:00,59.2,50.6,30.49,North,0,0.0,0.0,73,0.00,,,0.00,WUHU216HW,2013-01-10 15:10:00,
2013-01-10 10:15:00,58.9,50.2,30.49,North,0,0.0,0.0,73,0.00,,,0.00,WUHU216HW,2013-01-10 15:15:00,
2013-01-10 10:20:00,58.7,50.0,30.49,North,0,0.0,0.0,73,0.00,,,0.00,WUHU216HW,2013-01-10 15:20:00,
2013-01-10 10:25:00,58.5,49.9,30.49,North,0,0.0,0.0,73,0.00,,,0.00,WUHU216HW,2013-01-10 15:25:00,
2013-01-10 10:30:00,58.0,49.7,30.49,North,0,0.0,0.0,74,0.00,,,0.00,WUHU216HW,2013-01-10 15:30:00,
2013-01-10 11:00:00,58.7,50.4,30.49,North,0,0.0,0.0,74,0.00,,,0.00,WUHU216HW,2013-01-10 16:00:00,
2013-01-10 11:05:00,58.7,50.4,30.49,North,0,0.0,0.0,74,0.00,,,0.00,WUHU216HW,2013-01-10 16:05:00,
2013-01-10 11:24:00,58.7,50.0,30.47,North,0,0.0,0.0,73,0.00,,,0.00,WUHU216HW,2013-01-10 16:24:00,
2013-01-10 11:29:00,58.9,50.2,30.47,North,0,0.0,0.0,73,0.00,,,0.00,WUHU216HW,2013-01-10 16:29:00,
2013-01-10 11:34:00,59.0,50.4,30.47,North,0,0.0,0.0,73,0.00,,,0.00,WUHU216HW,2013-01-10 16:34:00,
2013-01-10 11:39:00,58.9,50.2,30.46,North,0,0.0,0.0,73,0.00,,,0.00,WUHU216HW,2013-01-10 16:39:00,
2013-01-10 11:44:00,59.0,50.4,30.46,North,0,0.0,0.0,73,0.00,,,0.00,WUHU216HW,2013-01-10 16:44:00,
2013-01-10 11:49:00,59.0,50.4,30.46,North,0,0.0,0.0,73,0.00,,,0.00,WUHU216HW,2013-01-10 16:49:00,
2013-01-10 11:54:00,58.9,50.2,30.45,North,0,0.0,0.0,73,0.00,,,0.00,WUHU216HW,2013-01-10 16:54:00,
2013-01-10 11:59:00,58.7,50.0,30.45,North,0,0.0,0.0,73,0.00,,,0.00,WUHU216HW,2013-01-10 16:59:00,
2013-01-10 12:05:00,58.7,50.0,30.45,North,0,0.0,0.0,73,0.00,,,0.00,WUHU216HW,2013-01-10 17:05:00,
2013-01-10 12:10:00,58.5,49.9,30.45,North,0,0.0,0.0,73,0.00,,,0.00,WUHU216HW,2013-01-10 17:10:00,
2013-01-10 12:15:00,58.3,49.7,30.45,North,0,0.0,0.0,73,0.00,,,0.00,WUHU216HW,2013-01-10 17:15:00,
2013-01-10 12:20:00,58.3,49.7,30.44,North,0,0.0,0.0,73,0.00,,,0.00,WUHU216HW,2013-01-10 17:20:00,
2013-01-10 12:25:00,58.3,49.7,30.45,North,0,0.0,0.0,73,0.00,,,0.00,WUHU216HW,2013-01-10 17:25:00,
2013-01-10 12:30:00,58.7,50.0,30.44,North,0,0.0,0.0,73,0.00,,,0.00,WUHU216HW,2013-01-10 17:30:00,
2013-01-10 12:35:00,58.7,50.0,30.44,North,0,0.0,0.0,73,0.00,,,0.00,WUHU216HW,2013-01-10 17:35:00,
2013-01-10 12:40:00,58.5,49.9,30.44,North,0,0.0,0.0,73,0.00,,,0.00,WUHU216HW,2013-01-10 17:40:00,
2013-01-10 12:45:00,58.3,49.7,30.44,North,0,0.0,0.0,73,0.00,,,0.00,WUHU216HW,2013-01-10 17:45:00,
2013-01-10 12:50:00,58.5,49.9,30.44,North,0,0.0,0.0,73,0.00,,,0.00,WUHU216HW,2013-01-10 17:50:00,
2013-01-10 12:55:00,58.7,49.7,30.44,North,0,0.0,0.0,72,0.00,,,0.00,WUHU216HW,2013-01-10 17:55:00,
2013-01-10 13:01:00,58.7,49.7,30.44,North,0,0.0,0.0,72,0.00,,,0.00,WUHU216HW,2013-01-10 18:01:00,
2013-01-10 13:06:00,58.7,49.7,30.44,North,0,0.0,0.0,72,0.00,,,0.00,WUHU216HW,2013-01-10 18:06:00,
2013-01-10 13:11:00,58.7,49.7,30.44,North,0,0.0,0.0,72,0.00,,,0.00,WUHU216HW,2013-01-10 18:11:00,
2013-01-10 13:16:00,58.9,49.5,30.44,North,0,0.0,0.0,71,0.00,,,0.00,WUHU216HW,2013-01-10 18:16:00,
2013-01-10 13:21:00,58.9,49.5,30.44,North,0,0.0,0.0,71,0.00,,,0.00,WUHU216HW,2013-01-10 18:21:00,
2013-01-10 13:26:00,58.7,49.3,30.44,North,0,0.0,0.0,71,0.00,,,0.00,WUHU216HW,2013-01-10 18:26:00,
2013-01-10 13:31:00,58.9,49.1,30.44,North,0,0.0,0.0,70,0.00,,,0.00,WUHU216HW,2013-01-10 18:31:00,
2013-01-10 13:36:00,58.9,49.1,30.43,North,0,0.0,0.0,70,0.00,,,0.00,WUHU216HW,2013-01-10 18:36:00,
2013-01-10 13:41:00,58.9,49.1,30.43,North,0,0.0,0.0,70,0.00,,,0.00,WUHU216HW,2013-01-10 18:41:00,
2013-01-10 13:46:00,59.0,49.3,30.43,North,0,0.0,0.0,70,0.00,,,0.00,WUHU216HW,2013-01-10 18:46:00,
2013-01-10 13:51:00,58.9,48.7,30.43,North,0,0.0,0.0,69,0.00,,,0.00,WUHU216HW,2013-01-10 18:51:00,
2013-01-10 13:56:00,58.9,48.7,30.43,North,0,0.0,0.0,69,0.00,,,0.00,WUHU216HW,2013-01-10 18:56:00,
2013-01-10 14:01:00,58.7,48.5,30.44,North,0,0.0,0.0,69,0.00,,,0.00,WUHU216HW,2013-01-10 19:01:00,
2013-01-10 14:06:00,58.7,48.5,30.44,North,0,0.0,0.0,69,0.00,,,0.00,WUHU216HW,2013-01-10 19:06:00,
2013-01-10 14:11:00,58.7,48.5,30.44,North,0,0.0,0.0,69,0.00,,,0.00,WUHU216HW,2013-01-10 19:11:00,
2013-01-10 14:16:00,58.5,48.3,30.44,North,0,0.0,0.0,69,0.00,,,0.00,WUHU216HW,2013-01-10 19:16:00,
2013-01-10 14:21:00,58.5,48.3,30.44,North,0,0.0,0.0,69,0.00,,,0.00,WUHU216HW,2013-01-10 19:21:00,
2013-01-10 14:26:00,58.3,48.2,30.45,North,0,0.0,0.0,69,0.00,,,0.00,WUHU216HW,2013-01-10 19:26:00,
2013-01-10 14:31:00,58.5,48.3,30.45,North,0,0.0,0.0,69,0.00,,,0.00,WUHU216HW,2013-01-10 19:31:00,
2013-01-10 14:37:00,59.2,49.1,30.45,North,0,0.0,0.0,69,0.00,,,0.00,WUHU216HW,2013-01-10 19:37:00,
2013-01-10 14:42:00,59.0,48.5,30.45,North,0,0.0,0.0,68,0.00,,,0.00,WUHU216HW,2013-01-10 19:42:00,
2013-01-10 14:47:00,58.7,48.2,30.45,North,0,0.0,0.0,68,0.00,,,0.00,WUHU216HW,2013-01-10 19:47:00,
2013-01-10 14:52:00,58.7,48.2,30.45,North,0,0.0,0.0,68,0.00,,,0.00,WUHU216HW,2013-01-10 19:52:00,
2013-01-10 14:57:00,58.5,48.0,30.45,North,0,0.0,0.0,68,0.00,,,0.00,WUHU216HW,2013-01-10 19:57:00,
2013-01-10 15:02:00,58.7,48.2,30.45,North,0,0.0,0.0,68,0.00,,,0.00,WUHU216HW,2013-01-10 20:02:00,
2013-01-10 15:07:00,58.5,48.0,30.45,North,0,0.0,0.0,68,0.00,,,0.00,WUHU216HW,2013-01-10 20:07:00,
2013-01-10 15:12:00,58.3,47.8,30.45,North,0,0.0,0.0,68,0.00,,,0.00,WUHU216HW,2013-01-10 20:12:00,
2013-01-10 15:17:00,58.3,47.8,30.45,North,0,0.0,0.0,68,0.00,,,0.00,WUHU216HW,2013-01-10 20:17:00,
2013-01-10 15:22:00,58.1,47.6,30.45,North,0,0.0,0.0,68,0.00,,,0.00,WUHU216HW,2013-01-10 20:22:00,
2013-01-10 15:27:00,58.1,47.6,30.45,North,0,0.0,0.0,68,0.00,,,0.00,WUHU216HW,2013-01-10 20:27:00,
2013-01-10 15:32:00,58.1,47.3,30.45,North,0,0.0,0.0,67,0.00,,,0.00,WUHU216HW,2013-01-10 20:32:00,
2013-01-10 15:37:00,58.1,47.3,30.45,North,0,0.0,0.0,67,0.00,,,0.00,WUHU216HW,2013-01-10 20:37:00,
2013-01-10 15:42:00,58.1,47.3,30.45,North,0,0.0,0.0,67,0.00,,,0.00,WUHU216HW,2013-01-10 20:42:00,
2013-01-10 15:47:00,58.0,47.1,30.45,North,0,0.0,0.0,67,0.00,,,0.00,WUHU216HW,2013-01-10 20:47:00,
2013-01-10 15:53:00,58.0,47.1,30.45,North,0,0.0,0.0,67,0.00,,,0.00,WUHU216HW,2013-01-10 20:53:00,
2013-01-10 15:58:00,58.0,47.1,30.44,North,0,0.0,0.0,67,0.00,,,0.00,WUHU216HW,2013-01-10 20:58:00,
2013-01-10 16:03:00,57.6,46.7,30.45,North,0,0.0,0.0,67,0.00,,,0.00,WUHU216HW,2013-01-10 21:03:00,
2013-01-10 16:08:00,57.6,46.3,30.45,North,0,0.0,0.0,66,0.00,,,0.00,WUHU216HW,2013-01-10 21:08:00,
2013-01-10 16:13:00,57.6,46.3,30.44,North,0,0.0,0.0,66,0.00,,,0.00,WUHU216HW,2013-01-10 21:13:00,
2013-01-10 16:18:00,57.6,46.3,30.44,North,0,0.0,0.0,66,0.00,,,0.00,WUHU216HW,2013-01-10 21:18:00,
2013-01-10 16:23:00,57.6,45.9,30.45,North,0,0.0,0.0,65,0.00,,,0.00,WUHU216HW,2013-01-10 21:23:00,
2013-01-10 16:28:00,57.4,45.7,30.45,North,0,0.0,0.0,65,0.00,,,0.00,WUHU216HW,2013-01-10 21:28:00,
2013-01-10 16:33:00,57.2,45.9,30.45,North,0,0.0,0.0,66,0.00,,,0.00,WUHU216HW,2013-01-10 21:33:00,
2013-01-10 16:38:00,57.2,45.5,30.45,North,0,0.0,0.0,65,0.00,,,0.00,WUHU216HW,2013-01-10 21:38:00,
2013-01-10 16:43:00,57.1,45.4,30.45,North,0,0.0,0.0,65,0.00,,,0.00,WUHU216HW,2013-01-10 21:43:00,
2013-01-10 16:48:00,56.9,44.8,30.45,North,0,0.0,0.0,64,0.00,,,0.00,WUHU216HW,2013-01-10 21:48:00,
2013-01-10 16:53:00,56.7,44.7,30.45,North,0,0.0,0.0,64,0.00,,,0.00,WUHU216HW,2013-01-10 21:53:00,
2013-01-10 16:59:00,56.7,44.7,30.45,North,0,0.0,0.0,64,0.00,,,0.00,WUHU216HW,2013-01-10 21:59:00,
2013-01-10 17:04:00,56.7,44.2,30.45,North,0,0.0,0.0,63,0.00,,,0.00,WUHU216HW,2013-01-10 22:04:00,
2013-01-10 17:09:00,56.5,44.5,30.45,North,0,0.0,0.0,64,0.00,,,0.00,WUHU216HW,2013-01-10 22:09:00,
2013-01-10 17:14:00,56.3,44.7,30.45,North,0,0.0,0.0,65,0.00,,,0.00,WUHU216HW,2013-01-10 22:14:00,
2013-01-10 17:19:00,56.2,44.1,30.45,North,0,0.0,0.0,64,0.00,,,0.00,WUHU216HW,2013-01-10 22:19:00,
2013-01-10 17:24:00,56.3,44.3,30.44,North,0,0.0,0.0,64,0.00,,,0.00,WUHU216HW,2013-01-10 22:24:00,
2013-01-10 17:29:00,56.3,44.3,30.44,North,0,0.0,0.0,64,0.00,,,0.00,WUHU216HW,2013-01-10 22:29:00,
2013-01-10 17:34:00,56.3,44.3,30.44,North,0,0.0,0.0,64,0.00,,,0.00,WUHU216HW,2013-01-10 22:34:00,
2013-01-10 17:39:00,56.3,44.3,30.44,North,0,0.0,0.0,64,0.00,,,0.00,WUHU216HW,2013-01-10 22:39:00,
2013-01-10 17:44:00,56.2,44.6,30.45,North,0,0.0,0.0,65,0.00,,,0.00,WUHU216HW,2013-01-10 22:44:00,
2013-01-10 17:49:00,56.2,44.9,30.45,North,0,0.0,0.0,66,0.00,,,0.00,WUHU216HW,2013-01-10 22:49:00,
2013-01-10 17:54:00,56.0,45.2,30.45,North,0,0.0,0.0,67,0.00,,,0.00,WUHU216HW,2013-01-10 22:54:00,
2013-01-10 17:59:00,56.0,45.2,30.45,North,0,0.0,0.0,67,0.00,,,0.00,WUHU216HW,2013-01-10 22:59:00,
2013-01-10 18:04:00,56.0,45.2,30.44,North,0,0.0,0.0,67,0.00,,,0.00,WUHU216HW,2013-01-10 23:04:00,
2013-01-10 18:09:00,56.0,45.5,30.45,North,0,0.0,0.0,68,0.00,,,0.00,WUHU216HW,2013-01-10 23:09:00,
2013-01-10 18:14:00,55.8,45.8,30.45,North,0,0.0,0.0,69,0.00,,,0.00,WUHU216HW,2013-01-10 23:14:00,
2013-01-10 18:19:00,55.8,45.8,30.45,North,0,0.0,0.0,69,0.00,,,0.00,WUHU216HW,2013-01-10 23:19:00,
2013-01-10 18:24:00,55.8,45.8,30.45,North,0,0.0,0.0,69,0.00,,,0.00,WUHU216HW,2013-01-10 23:24:00,
2013-01-10 18:29:00,55.8,45.8,30.45,North,0,0.0,0.0,69,0.00,,,0.00,WUHU216HW,2013-01-10 23:29:00,
2013-01-10 18:34:00,55.6,46.1,30.45,North,0,0.0,0.0,70,0.00,,,0.00,WUHU216HW,2013-01-10 23:34:00,
2013-01-10 18:40:00,55.4,45.9,30.45,North,0,0.0,0.0,70,0.00,,,0.00,WUHU216HW,2013-01-10 23:40:00,
2013-01-10 18:45:00,55.4,45.9,30.45,North,0,0.0,0.0,70,0.00,,,0.00,WUHU216HW,2013-01-10 23:45:00,
2013-01-10 18:50:00,55.4,45.5,30.45,North,0,0.0,0.0,69,0.00,,,0.00,WUHU216HW,2013-01-10 23:50:00,
2013-01-10 18:55:00,55.4,45.5,30.45,North,0,0.0,0.0,69,0.00,,,0.00,WUHU216HW,2013-01-10 23:55:00,
2013-01-10 19:00:00,55.4,45.9,30.44,North,0,0.0,0.0,70,0.00,,,0.00,WUHU216HW,2013-01-11 00:00:00,
2013-01-10 19:05:00,55.3,45.7,30.45,North,0,0.0,0.0,70,0.00,,,0.00,WUHU216HW,2013-01-11 00:05:00,
2013-01-10 19:10:00,55.1,45.5,30.45,North,0,0.0,0.0,70,0.00,,,0.00,WUHU216HW,2013-01-11 00:10:00,
2013-01-10 19:15:00,55.1,45.5,30.45,North,0,0.0,0.0,70,0.00,,,0.00,WUHU216HW,2013-01-11 00:15:00,
2013-01-10 19:20:00,55.1,45.5,30.45,North,0,0.0,0.0,70,0.00,,,0.00,WUHU216HW,2013-01-11 00:20:00,
2013-01-10 19:25:00,55.1,45.5,30.45,North,0,0.0,0.0,70,0.00,,,0.00,WUHU216HW,2013-01-11 00:25:00,
2013-01-10 19:30:00,55.1,45.5,30.45,North,0,0.0,0.0,70,0.00,,,0.00,WUHU216HW,2013-01-11 00:30:00,
2013-01-10 19:35:00,55.1,45.1,30.45,North,0,0.0,0.0,69,0.00,,,0.00,WUHU216HW,2013-01-11 00:35:00,
2013-01-10 19:40:00,55.1,45.1,30.45,North,0,0.0,0.0,69,0.00,,,0.00,WUHU216HW,2013-01-11 00:40:00,
2013-01-10 19:45:00,55.1,45.1,30.45,North,0,0.0,0.0,69,0.00,,,0.00,WUHU216HW,2013-01-11 00:45:00,
2013-01-10 19:50:00,55.1,44.7,30.45,North,0,0.0,0.0,68,0.00,,,0.00,WUHU216HW,2013-01-11 00:50:00,
2013-01-10 19:56:00,55.1,45.1,30.45,North,0,0.0,0.0,69,0.00,,,0.00,WUHU216HW,2013-01-11 00:56:00,
2013-01-10 20:01:00,55.1,45.5,30.46,North,0,0.0,0.0,70,0.00,,,0.00,WUHU216HW,2013-01-11 01:01:00,
2013-01-10 20:06:00,54.9,45.7,30.45,North,0,0.0,0.0,71,0.00,,,0.00,WUHU216HW,2013-01-11 01:06:00,
2013-01-10 20:11:00,54.9,45.7,30.45,North,0,0.0,0.0,71,0.00,,,0.00,WUHU216HW,2013-01-11 01:11:00,
2013-01-10 20:16:00,54.7,45.6,30.45,North,0,0.0,0.0,71,0.00,,,0.00,WUHU216HW,2013-01-11 01:16:00,
2013-01-10 20:21:00,54.7,45.9,30.45,North,0,0.0,0.0,72,0.00,,,0.00,WUHU216HW,2013-01-11 01:21:00,
2013-01-10 20:26:00,54.5,45.7,30.45,North,0,0.0,0.0,72,0.00,,,0.00,WUHU216HW,2013-01-11 01:26:00,
2013-01-10 20:31:00,54.4,45.6,30.45,North,0,0.0,0.0,72,0.00,,,0.00,WUHU216HW,2013-01-11 01:31:00,
2013-01-10 20:36:00,54.4,45.9,30.45,North,0,0.0,0.0,73,0.00,,,0.00,WUHU216HW,2013-01-11 01:36:00,
2013-01-10 20:41:00,54.4,45.9,30.46,North,0,0.0,0.0,73,0.00,,,0.00,WUHU216HW,2013-01-11 01:41:00,
2013-01-10 20:46:00,54.4,45.9,30.45,North,0,0.0,0.0,73,0.00,,,0.00,WUHU216HW,2013-01-11 01:46:00,
2013-01-10 20:51:00,54.2,45.7,30.45,North,0,0.0,0.0,73,0.00,,,0.00,WUHU216HW,2013-01-11 01:51:00,
2013-01-10 20:56:00,54.2,45.7,30.45,North,0,0.0,0.0,73,0.00,,,0.00,WUHU216HW,2013-01-11 01:56:00,
2013-01-10 21:01:00,54.0,45.6,30.45,North,0,0.0,0.0,73,0.00,,,0.00,WUHU216HW,2013-01-11 02:01:00,
2013-01-10 21:06:00,54.2,45.7,30.45,North,0,0.0,0.0,73,0.00,,,0.00,WUHU216HW,2013-01-11 02:06:00,
2013-01-10 21:11:00,54.2,45.7,30.44,North,0,0.0,0.0,73,0.00,,,0.00,WUHU216HW,2013-01-11 02:11:00,
2013-01-10 21:16:00,54.0,45.6,30.44,North,0,0.0,0.0,73,0.00,,,0.00,WUHU216HW,2013-01-11 02:16:00,
2013-01-10 21:21:00,54.0,45.9,30.44,North,0,0.0,0.0,74,0.00,,,0.00,WUHU216HW,2013-01-11 02:21:00,
2013-01-10 21:26:00,53.8,45.7,30.44,North,0,0.0,0.0,74,0.00,,,0.00,WUHU216HW,2013-01-11 02:26:00,
2013-01-10 21:31:00,53.8,46.1,30.44,North,0,0.0,0.0,75,0.00,,,0.00,WUHU216HW,2013-01-11 02:31:00,
2013-01-10 21:37:00,53.6,45.9,30.44,North,0,0.0,0.0,75,0.00,,,0.00,WUHU216HW,2013-01-11 02:37:00,
2013-01-10 21:42:00,53.6,45.9,30.44,North,0,0.0,0.0,75,0.00,,,0.00,WUHU216HW,2013-01-11 02:42:00,
2013-01-10 21:47:00,53.6,45.9,30.44,North,0,0.0,0.0,75,0.00,,,0.00,WUHU216HW,2013-01-11 02:47:00,
2013-01-10 21:52:00,53.6,45.9,30.44,North,0,0.0,0.0,75,0.00,,,0.00,WUHU216HW,2013-01-11 02:52:00,
2013-01-10 21:57:00,53.6,45.9,30.43,North,0,0.0,0.0,75,0.00,,,0.00,WUHU216HW,2013-01-11 02:57:00,
2013-01-10 22:02:00,53.6,45.9,30.43,North,0,0.0,0.0,75,0.00,,,0.00,WUHU216HW,2013-01-11 03:02:00,
2013-01-10 22:07:00,53.6,45.9,30.43,North,0,0.0,0.0,75,0.00,,,0.00,WUHU216HW,2013-01-11 03:07:00,
2013-01-10 22:12:00,53.6,45.9,30.43,North,0,0.0,0.0,75,0.00,,,0.00,WUHU216HW,2013-01-11 03:12:00,
2013-01-10 22:17:00,53.6,45.9,30.43,North,0,0.0,0.0,75,0.00,,,0.00,WUHU216HW,2013-01-11 03:17:00,
2013-01-10 22:22:00,53.6,45.9,30.43,North,0,0.0,0.0,75,0.00,,,0.00,WUHU216HW,2013-01-11 03:22:00,
2013-01-10 22:27:00,53.6,45.9,30.43,North,0,0.0,0.0,75,0.00,,,0.00,WUHU216HW,2013-01-11 03:27:00,
2013-01-10 22:32:00,53.5,45.7,30.43,North,0,0.0,0.0,75,0.00,,,0.00,WUHU216HW,2013-01-11 03:32:00,
2013-01-10 22:37:00,53.6,45.9,30.42,North,0,0.0,0.0,75,0.00,,,0.00,WUHU216HW,2013-01-11 03:37:00,
2013-01-10 22:42:00,53.5,45.7,30.42,North,0,0.0,0.0,75,0.00,,,0.00,WUHU216HW,2013-01-11 03:42:00,
2013-01-10 22:47:00,53.5,45.7,30.42,North,0,0.0,0.0,75,0.00,,,0.00,WUHU216HW,2013-01-11 03:47:00,
2013-01-10 22:52:00,53.3,45.5,30.42,North,0,0.0,0.0,75,0.00,,,0.00,WUHU216HW,2013-01-11 03:52:00,
2013-01-10 22:58:00,53.3,45.5,30.42,North,0,0.0,0.0,75,0.00,,,0.00,WUHU216HW,2013-01-11 03:58:00,
2013-01-10 23:03:00,53.3,45.5,30.42,North,0,0.0,0.0,75,0.00,,,0.00,WUHU216HW,2013-01-11 04:03:00,
2013-01-10 23:07:00,53.3,45.5,30.42,North,0,0.0,0.0,75,0.00,,,0.00,WUHU216HW,2013-01-11 04:07:00,
2013-01-10 23:13:00,53.3,45.5,30.42,North,0,0.0,0.0,75,0.00,,,0.00,WUHU216HW,2013-01-11 04:13:00,
2013-01-10 23:18:00,53.1,45.4,30.42,North,0,0.0,0.0,75,0.00,,,0.00,WUHU216HW,2013-01-11 04:18:00,
2013-01-10 23:23:00,53.3,45.5,30.41,North,0,0.0,0.0,75,0.00,,,0.00,WUHU216HW,2013-01-11 04:23:00,
2013-01-10 23:28:00,53.1,45.4,30.42,North,0,0.0,0.0,75,0.00,,,0.00,WUHU216HW,2013-01-11 04:28:00,
2013-01-10 23:33:00,53.1,45.7,30.41,North,0,0.0,0.0,76,0.00,,,0.00,WUHU216HW,2013-01-11 04:33:00,
2013-01-10 23:38:00,53.1,45.7,30.41,North,0,0.0,0.0,76,0.00,,,0.00,WUHU216HW,2013-01-11 04:38:00,
2013-01-10 23:43:00,52.9,45.5,30.41,North,0,0.0,0.0,76,0.00,,,0.00,WUHU216HW,2013-01-11 04:43:00,
2013-01-10 23:48:00,52.9,45.5,30.41,North,0,0.0,0.0,76,0.00,,,0.00,WUHU216HW,2013-01-11 04:48:00,
2013-01-10 23:53:00,52.9,45.5,30.41,North,0,0.0,0.0,76,0.00,,,0.00,WUHU216HW,2013-01-11 04:53:00,
2013-01-10 23:58:00,52.9,45.5,30.41,North,0,0.0,0.0,76,0.00,,,0.00,WUHU216HW,2013-01-11 04:58:00,